Wetbulb
41.10 40.93 40.70 40.35 40.51 40.94 41.29 41.05 39.96 39.92 40.51 41.19 41.51 41.62 41.77 42.07 42.26 42.66 43.10 43.39 43.61 43.68 43.79 44.04 44.02 43.69 43.15 42.36 41.80 41.39 41.05 40.79 40.40 39.79 39.31 39.12 39.18 39.12 38.98 39.04 39.21 39.34 39.42 39.60 39.72 39.93 39.88 39.25 39.44 39.76 39.76 38.57 38.16 37.75 37.52 37.60 37.47 38.38 39.69 40.60 40.33 39.60 38.61 37.80 37.75 37.57 37.48 37.31 37.39
40.14 39.87 39.57 39.06 39.10 39.75 40.27 40.16 40.01 40.10 40.45 41.04 41.29 41.29 41.40 41.67 41.82 42.16 42.56 42.86 43.22 43.31 43.30 43.22 42.65 41.71 40.74 39.57 39.21 38.82 38.46 38.10 38.05 38.06 37.98 38.13 37.98 38.09 38.16 38.46 38.58 38.68 38.89 39.11 39.29 39.54 39.75 39.16 39.53 39.76 39.71 39.16 38.53 38.21 38.16 38.29 38.43 38.75 39.25 39.49 39.17 38.26 37.04 36.21 35.80 35.85 36.14 36.55 36.45
39.18 39.14 39.09 39.05 38.99 39.13 39.31 39.53 39.43 39.37 39.60 40.06 40.55 40.83 41.04 41.28 41.28 41.31 41.43 41.85 42.07 41.95 41.63 41.18 40.27 39.19 38.23 37.69 37.55 37.50 37.19 37.03 37.05 37.14 37.18 37.29 37.19 37.31 37.55 37.80 38.02 38.23 38.52 38.95 39.15 39.42 39.44 39.25 39.61 39.56 39.33 39.02 38.03 37.67 37.85 38.08 38.22 38.18 37.82 37.14 37.14 36.78 36.34 36.21 35.18 34.86 34.86 35.04 34.41
38.06 38.07 38.14 38.03 37.58 37.73 37.95 38.57 38.40 38.32 38.74 39.62 39.55 39.72 40.00 40.46 40.60 40.61 40.70 40.87 40.79 40.38 39.49 38.54 37.86 37.20 36.76 36.48 36.58 36.61 36.59 36.30 36.45 36.55 36.42 36.36 36.32 36.39 36.61 37.04 37.31 37.86 38.23 38.62 38.66 38.68 38.65 38.72 39.34 39.16 38.12 36.26 35.32 35.27 35.81 36.64 36.57 36.66 36.39 35.56 35.18 34.77 34.59 34.78 33.96 33.96 33.96 33.58 32.53
37.00 37.12 37.31 37.28 36.86 36.90 37.20 37.39 37.39 37.69 38.25 38.96 39.02 39.10 39.22 39.33 39.40 39.53 39.64 39.90 39.61 38.72 37.36 35.84 35.80 35.50 35.17 35.33 36.12 36.29 36.19 36.28 36.04 35.95 35.91 35.70 35.72 35.98 36.24 36.40 36.96 37.36 37.64 37.92 37.77 37.57 37.46 37.57 38.43 37.98 36.89 35.43 35.35 34.62 33.79 33.66 34.13 34.22 34.29 34.64 33.96 33.45 33.09 32.82 32.91 32.96 32.82 32.44 31.54
36.13 36.08 36.10 36.29 36.06 36.25 36.56 36.86 36.52 36.86 37.46 37.99 37.60 37.44 37.67 38.37 38.48 38.18 37.99 38.34 37.64 36.43 35.15 34.02 34.04 34.03 34.12 34.61 35.38 35.77 35.88 35.84 35.71 35.43 35.25 35.18 35.63 36.04 36.48 36.75 37.12 37.40 37.54 37.39 36.84 36.38 36.27 36.48 37.15 36.86 36.21 35.90 34.40 32.98 32.11 32.27 32.49 32.13 32.02 32.51 32.41 32.08 31.50 30.71 31.47 31.52 30.98 29.86 29.16
35.35 35.46 35.52 35.51 35.51 35.76 36.05 35.84 36.14 36.39 36.50 36.76 36.04 35.85 35.96 36.63 36.54 35.90 35.57 36.35 36.24 35.45 34.43 33.72 33.73 34.10 34.32 34.46 34.66 34.96 35.16 35.37 35.51 35.40 35.35 35.37 35.73 36.08 36.37 36.67 37.07 37.28 37.21 36.98 36.42 36.04 35.94 36.00 36.92 36.54 35.70 35.36 34.94 32.98 31.17 30.89 31.30 30.99 30.54 30.31 30.72 30.53 29.59 28.27 29.50 29.80 29.10 27.58 27.02
35.11 35.07 35.21 35.39 35.57 35.45 35.29 35.05 35.65 35.83 36.08 36.39 35.65 35.06 34.78 35.04 35.04 34.71 34.73 35.61 35.75 35.09 34.26 33.64 33.59 34.06 34.51 34.73 34.85 34.97 35.18 35.28 35.33 35.54 35.87 36.00 36.14 36.26 36.48 36.76 36.76 36.91 36.94 36.88 36.36 35.99 35.85 36.22 36.57 35.75 34.81 34.85 34.38 32.69 30.80 29.63 29.65 29.49 29.13 28.63 29.01 28.58 27.71 27.01 27.23 27.71 27.73 26.75 26.80
35.54 35.28 35.13 35.23 35.37 35.33 35.17 34.96 34.84 34.90 35.00 34.98 34.52 34.25 34.26 34.60 34.68 34.59 34.63 35.15 35.28 34.83 34.36 34.42 34.51 34.53 34.56 34.19 34.02 34.46 35.06 35.68 35.56 35.48 35.74 36.05 36.14 36.34 36.48 36.61 36.49 36.61 36.67 36.65 36.14 35.47 35.11 35.61 35.47 34.83 34.26 34.23 33.32 31.78 30.28 29.41 28.94 28.54 28.22 27.82 27.29 26.70 26.05 25.60 25.69 25.96 26.16 25.88 26.43
35.39 35.38 35.45 35.63 35.23 35.27 35.24 35.13 35.08 34.52 33.98 34.11 33.95 34.03 34.34 34.67 34.96 34.87 34.84 35.11 34.76 34.84 35.11 35.66 35.77 35.39 34.74 33.92 33.70 33.77 34.25 34.84 35.23 35.56 35.85 36.13 36.00 35.92 36.11 36.41 36.20 36.18 36.28 35.97 35.43 34.78 34.37 34.54 33.97 33.45 32.88 32.31 31.28 30.35 29.72 29.09 28.49 27.94 27.59 27.72 26.75 25.46 24.41 24.20 24.36 24.68 25.06 25.54 25.80
34.74 35.08 35.41 35.82 35.36 35.40 35.40 35.07 35.35 35.16 34.83 34.66 34.46 34.60 34.87 35.08 35.20 35.12 35.25 35.70 35.71 35.55 35.47 35.25 35.65 35.35 34.85 34.09 34.05 34.29 34.58 34.88 35.33 35.94 36.14 36.16 36.02 36.00 35.96 36.05 35.82 35.72 35.37 34.98 34.53 34.08 33.74 33.56 32.78 32.30 31.67 30.85 29.82 29.45 29.09 28.43 27.81 27.26 26.58 25.61 25.31 24.55 23.98 23.71 23.39 23.39 23.84 24.25 24.72
34.74 34.96 35.16 35.34 35.23 35.23 35.27 35.15 35.52 35.45 35.23 34.89 34.93 35.11 35.46 35.70 35.30 35.23 35.58 36.56 36.96 36.43 35.49 34.75 34.87 34.76 34.43 34.08 34.46 34.76 35.09 35.70 36.33 36.57 36.47 36.29 35.96 35.86 35.58 35.48 35.17 34.86 34.30 33.84 33.43 33.00 32.64 32.37 31.83 31.30 30.64 29.86 28.89 28.66 28.46 27.82 27.30 26.93 26.31 25.03 24.35 23.89 23.68 23.55 22.85 22.61 22.58 22.70 23.62
34.48 34.72 34.83 34.98 34.83 34.83 34.87 34.95 35.32 35.50 35.32 35.05 35.33 35.62 35.91 35.97 35.24 35.09 35.58 36.76 37.18 36.49 35.35 34.14 34.15 33.94 33.71 33.49 34.01 34.68 35.40 36.23 36.75 36.77 36.63 36.23 35.82 35.41 35.01 34.79 34.36 33.93 33.36 32.66 32.16 31.59 31.21 31.07 30.92 30.53 30.00 29.33 28.54 28.19 27.92 27.64 27.18 26.90 26.21 24.87 23.74 23.35 23.23 23.49 22.66 22.04 21.78 21.74 22.57
34.02 34.21 34.37 34.51 34.43 34.62 34.73 34.72 35.27 35.45 35.44 35.19 35.51 35.91 36.27 36.52 36.05 35.89 36.16 36.92 36.99 36.48 35.34 33.71 33.69 33.78 33.83 33.42 33.59 34.75 36.12 36.84 36.89 36.58 36.13 35.72 35.50 35.00 34.53 34.08 33.72 33.31 32.83 32.06 31.33 30.81 30.44 30.06 30.06 29.91 29.52 29.17 28.46 27.95 27.52 27.41 27.00 26.66 26.11 25.19 24.48 23.88 23.49 23.23 22.40 22.01 21.95 22.16 22.34
33.78 33.85 33.92 34.13 34.12 34.34 34.60 34.47 35.28 35.57 35.65 35.60 36.11 36.58 37.14 37.74 37.51 37.39 37.40 37.57 37.46 36.63 35.39 33.92 33.72 34.13 34.75 34.96 34.96 35.96 37.05 37.44 36.86 36.23 35.76 35.30 34.97 34.35 33.72 33.22 32.84 32.52 32.27 31.78 30.96 30.49 30.33 29.85 29.57 29.27 29.22 29.13 28.38 27.63 27.11 26.80 26.29 26.01 25.82 25.42 24.83 24.20 23.49 22.96 22.19 21.89 22.01 22.22 21.78
33.47 33.58 33.78 33.88 33.89 34.06 34.31 34.51 35.45 35.87 36.12 36.41 37.00 37.59 38.16 38.73 38.68 38.33 38.14 37.78 37.56 36.32 34.93 33.76 33.39 33.83 34.65 35.53 36.75 37.59 37.83 37.42 36.68 36.05 35.54 35.21 34.65 33.99 33.18 32.48 32.08 31.76 31.53 31.16 30.38 29.82 29.51 29.11 28.71 28.75 28.83 28.74 28.03 27.08 26.29 26.13 25.54 25.27 25.08 24.90 24.30 23.64 23.05 22.63 21.92 21.60 21.72 21.81 21.23
33.21 33.44 33.63 33.75 33.77 33.86 34.09 34.57 35.48 36.05 36.54 36.98 37.69 38.22 38.63 38.93 38.73 38.36 37.71 36.76 35.77 34.39 33.42 33.30 33.61 34.10 34.55 35.18 36.84 37.66 37.69 37.08 36.50 36.10 35.63 35.26 34.64 33.90 33.00 32.20 31.82 31.36 30.95 30.52 29.95 29.47 28.89 28.21 27.83 27.79 27.82 27.89 27.68 26.90 26.14 25.88 25.11 24.82 24.52 23.95 23.53 23.08 22.69 22.66 21.83 21.33 21.13 21.11 20.89
33.00 33.25 33.53 33.74 33.77 33.91 34.22 34.62 35.45 36.10 36.71 37.43 38.00 38.42 38.47 38.35 37.89 37.42 36.55 34.32 32.75 32.51 32.98 33.93 34.24 34.37 34.77 35.67 36.85 37.25 37.20 37.07 36.67 36.37 35.91 35.31 34.45 33.62 32.83 32.27 31.66 30.95 30.36 29.75 29.47 29.31 28.96 28.29 27.86 27.28 26.72 26.69 26.66 26.36 25.79 25.37 24.81 24.52 24.07 23.36 22.85 22.37 22.07 21.86 21.07 20.63 20.51 20.46 20.61
32.95 33.26 33.61 33.78 34.04 34.28 34.75 35.18 35.85 36.53 37.26 37.92 38.13 38.09 37.75 37.18 36.56 36.14 35.12 32.87 31.92 32.60 33.88 34.69 34.91 35.04 35.31 36.39 37.30 37.43 37.07 36.70 36.12 35.70 35.29 34.67 33.80 33.05 32.48 32.04 31.16 30.29 29.57 29.09 28.84 28.79 28.69 28.48 28.03 27.39 26.66 26.28 25.92 25.47 24.94 24.31 23.72 23.18 22.70 22.19 21.72 21.27 20.80 20.45 19.77 19.65 19.66 19.82 19.94
32.93 33.39 33.84 34.22 34.55 34.99 35.39 36.09 36.69 37.22 37.64 38.09 37.71 37.17 36.55 35.70 34.92 34.63 34.34 33.39 33.35 33.72 34.27 34.72 35.26 35.80 36.43 37.21 37.48 37.26 36.63 35.67 35.00 34.65 34.46 34.18 33.46 32.83 32.20 31.44 30.43 29.75 29.09 28.71 28.44 28.11 27.86 27.59 27.51 27.10 26.57 26.21 25.67 24.84 23.71 22.67 21.78 21.09 20.56 20.23 19.94 19.83 19.68 19.42 19.03 18.83 18.78 18.84 19.06
33.18 33.71 34.34 34.84 35.20 35.65 36.24 36.92 37.24 37.43 37.56 37.58 36.80 35.90 34.98 34.05 33.53 34.02 34.74 35.01 34.92 34.56 34.65 35.38 36.33 36.89 37.03 37.04 36.73 36.46 36.01 35.20 34.74 34.49 34.32 33.94 33.46 32.79 31.92 30.89 30.07 29.30 28.72 28.04 27.86 27.50 27.20 26.81 26.57 26.00 25.52 25.01 24.48 23.50 22.25 20.97 19.82 19.05 18.68 18.23 18.41 18.47 18.44 18.35 18.33 18.12 18.04 18.14 18.21
33.64 34.32 34.89 35.40 35.90 36.50 37.01 37.45 37.38 37.29 37.11 36.72 35.57 34.51 33.51 32.82 33.13 34.36 35.85 36.54 36.12 35.76 35.94 36.50 36.91 36.87 36.47 36.06 35.56 35.34 35.39 35.35 35.00 34.70 34.21 33.43 32.77 32.02 30.99 29.81 29.11 28.58 28.07 27.58 26.83 26.32 25.90 25.57 24.95 24.24 23.52 22.87 22.16 21.71 21.45 20.91 19.17 17.97 17.45 17.30 17.24 17.27 17.29 17.21 17.27 17.33 17.40 17.62 17.75
34.13 34.97 35.53 36.10 36.78 37.26 37.49 37.45 37.08 36.90 36.48 35.65 34.37 33.42 32.82 32.91 33.87 35.20 36.39 37.17 36.85 36.85 36.94 37.03 36.63 36.27 35.86 35.36 34.81 34.59 34.55 34.40 33.91 33.46 32.80 31.97 31.16 29.93 28.60 27.35 26.82 26.49 26.33 26.12 25.49 24.67 24.02 23.72 23.10 22.13 21.18 20.56 20.12 20.09 20.21 20.27 19.33 18.30 17.54 17.46 17.14 16.90 16.57 16.36 16.36 16.53 16.70 17.11 17.48
34.61 35.35 36.04 37.09 37.67 37.90 37.79 37.08 36.69 36.49 36.02 34.86 33.72 32.82 32.60 33.42 34.29 35.26 36.08 36.72 36.80 36.85 36.75 36.67 36.41 36.07 35.67 35.18 34.57 33.72 32.77 31.92 31.28 30.81 30.56 30.06 28.91 27.58 26.28 25.29 24.72 24.40 24.28 24.26 25.40 25.98 25.67 24.20 22.99 21.80 20.86 20.00 19.67 19.35 19.21 19.27 18.50 18.04 17.87 18.09 17.74 17.16 16.53 16.10 15.87 16.28 16.79 16.79 17.28
35.00 35.49 36.23 37.30 38.27 38.12 37.42 36.48 36.44 36.25 35.72 34.50 33.45 32.78 32.87 33.65 34.80 35.58 36.04 36.32 36.39 36.34 36.11 36.05 36.03 35.76 35.37 34.61 33.41 32.20 30.89 29.71 29.07 28.76 28.52 28.32 27.16 26.03 25.14 24.62 24.07 23.81 24.03 25.09 29.47 32.20 32.60 30.41 28.04 25.16 22.43 20.71 19.97 19.53 19.15 18.76 18.29 18.09 18.21 18.69 18.62 18.07 17.37 17.11 16.66 16.86 17.09 16.69 16.93
35.12 35.54 36.07 37.37 38.00 37.64 36.74 36.30 36.17 35.98 35.45 34.37 33.51 33.14 33.14 33.65 34.65 35.35 35.73 36.07 36.04 35.95 35.67 35.40 35.36 34.94 34.09 33.04 31.70 30.66 29.70 28.76 28.08 27.39 26.78 26.22 25.42 24.88 24.68 24.61 24.15 24.24 25.60 29.08 32.08 33.93 34.88 35.52 34.50 30.09 24.57 20.44 20.24 20.07 19.72 18.80 18.62 18.32 18.14 18.21 18.25 18.27 18.34 18.50 18.33 17.91 17.64 17.52 16.82
34.77 35.22 35.82 37.20 37.30 36.73 36.14 35.91 35.77 35.48 34.95 34.20 33.56 33.47 33.70 34.11 34.89 35.04 34.93 35.03 35.02 34.93 34.57 34.38 34.09 33.23 32.22 31.45 30.50 29.70 28.89 28.10 27.30 26.30 25.29 24.30 24.22 24.34 24.45 24.64 24.30 25.12 27.30 31.17 33.26 34.37 35.07 35.70 35.95 33.91 29.41 22.40 21.07 20.75 20.49 19.26 18.52 18.12 17.85 17.38 17.33 17.59 18.19 18.95 19.01 18.88 18.55 18.24 17.09
34.17 34.76 35.40 36.31 36.21 35.70 35.19 34.76 34.92 34.79 34.33 33.47 33.10 33.32 33.87 34.46 34.48 34.44 34.18 33.97 33.86 33.64 33.35 33.02 32.73 32.01 31.10 30.16 29.76 29.24 28.47 27.55 26.47 25.29 24.35 23.62 23.64 23.81 24.13 24.21 24.01 25.74 28.71 32.40 33.49 34.27 34.69 35.07 35.15 34.96 32.89 27.85 22.66 20.80 20.37 19.38 18.44 17.55 16.95 16.80 16.77 16.93 17.33 17.96 18.66 18.92 18.92 18.54 18.03
33.45 33.92 34.31 34.93 34.83 34.65 34.32 33.94 33.65 33.50 33.21 32.93 33.06 33.50 33.88 34.16 33.87 33.62 33.54 33.52 33.39 32.98 32.62 32.67 32.03 30.81 29.62 28.81 28.69 28.46 27.82 26.55 25.18 24.32 23.86 23.84 23.90 23.69 23.43 23.08 23.23 25.99 29.72 33.20 33.53 33.82 33.99 33.96 33.77 33.65 33.17 32.03 26.15 21.77 19.12 18.39 18.13 17.75 17.34 17.07 16.77 16.92 17.37 18.27 18.23 18.20 18.12 18.04 18.26
33.24 33.34 33.36 33.94 33.88 33.83 33.72 33.54 33.06 32.92 32.85 33.13 33.28 33.35 33.24 32.84 32.87 32.87 32.74 32.72 32.43 32.17 32.04 32.03 30.55 29.43 28.49 28.02 27.54 27.17 26.75 25.94 25.15 24.55 24.15 23.92 23.55 23.18 22.97 23.41 23.30 25.71 29.56 33.64 33.60 33.49 33.25 32.89 32.38 31.93 31.55 31.32 28.27 23.87 19.91 18.17 17.82 17.77 17.86 17.95 17.83 18.20 18.66 19.07 18.72 18.19 17.68 17.44 17.18
32.47 32.44 32.58 33.12 33.30 33.28 33.20 33.02 33.00 33.02 33.19 33.44 33.12 32.59 32.09 31.76 31.80 31.84 31.91 31.80 31.56 31.69 31.57 30.73 29.40 28.66 28.27 28.23 27.52 27.11 26.72 26.16 25.52 24.60 23.65 22.66 22.35 22.13 22.00 22.27 22.61 25.49 29.69 33.76 33.10 32.74 32.26 31.75 31.24 30.72 30.08 29.51 27.34 24.07 20.62 18.22 17.34 17.14 17.40 18.02 18.41 18.71 19.16 19.55 19.36 19.15 18.82 18.35 17.91
31.48 31.55 31.71 32.12 32.31 32.55 32.78 32.90 32.79 32.64 32.64 32.79 32.09 31.48 31.04 31.05 31.31 31.48 31.50 31.36 30.97 30.80 30.47 29.90 29.45 29.18 28.84 28.63 28.05 27.36 26.61 25.52 24.32 23.16 22.10 21.30 21.11 21.17 21.16 20.94 21.31 24.70 29.28 33.18 32.41 31.83 31.39 30.88 30.46 29.86 29.10 28.29 25.84 22.86 19.94 17.98 16.77 16.15 16.04 16.63 18.23 19.12 19.41 19.65 19.77 19.74 19.77 19.57 19.39
30.58 30.74 30.89 31.03 31.42 31.92 32.42 32.46 32.45 32.20 31.86 31.64 31.14 30.81 30.58 30.45 30.99 31.31 31.33 31.07 30.54 30.27 30.13 30.40 30.40 29.84 29.08 28.45 27.62 26.47 25.13 23.50 22.32 21.61 21.04 20.66 20.46 20.49 20.49 20.29 21.06 25.77 30.77 32.26 31.71 31.31 30.85 30.30 29.81 29.18 28.47 27.51 24.57 21.34 18.58 16.98 16.15 15.62 15.62 16.24 17.90 19.11 20.03 20.60 21.17 21.52 21.67 21.64 21.22
30.13 30.29 30.53 30.62 30.92 31.37 31.66 31.71 31.39 30.98 30.64 30.43 30.54 30.67 30.60 30.33 30.48 30.58 30.73 30.76 30.54 30.75 30.98 31.44 30.93 29.83 28.58 27.55 26.20 24.69 23.15 21.72 20.95 20.38 19.93 19.52 19.38 19.58 19.68 19.52 20.50 26.34 31.74 31.57 31.24 30.97 30.52 30.06 29.54 28.84 28.02 26.72 23.33 20.13 17.64 16.67 16.10 15.86 16.12 16.77 17.87 19.02 20.09 21.21 21.87 22.31 22.61 22.64 22.46
29.77 29.88 30.11 30.11 30.56 30.83 30.92 30.64 30.58 30.32 30.01 29.82 29.87 29.98 29.90 29.69 29.75 29.81 29.80 29.64 29.92 30.57 31.13 31.17 30.11 28.53 26.86 25.35 24.00 22.87 21.82 20.83 20.29 19.83 19.48 18.90 18.73 18.92 19.13 19.20 19.91 25.50 30.85 31.06 30.91 30.74 30.43 29.90 29.24 28.57 27.35 25.09 21.48 18.70 16.98 16.37 16.07 16.10 16.48 17.22 17.93 19.14 20.44 21.48 21.95 22.22 22.34 22.26 22.32
29.47 29.47 29.43 29.43 30.06 30.24 30.29 30.40 30.53 30.36 29.98 29.38 29.13 29.01 29.03 29.00 28.97 29.01 28.88 28.55 28.69 29.00 29.31 29.44 28.32 26.62 24.83 23.27 22.37 21.69 21.00 20.53 20.13 19.82 19.33 18.46 18.20 18.07 18.16 18.35 19.01 23.71 28.79 30.52 30.43 30.37 30.14 29.88 29.28 28.38 26.53 23.12 19.50 17.52 16.54 16.01 15.83 16.10 16.54 17.01 17.87 18.70 19.53 20.51 21.11 21.34 21.35 21.32 21.43
29.02 28.93 28.93 29.05 29.47 29.92 30.24 30.56 30.37 29.94 29.43 28.93 28.44 28.30 28.34 28.26 28.35 28.32 28.11 27.75 27.67 27.52 27.43 27.37 26.75 25.38 23.94 22.61 21.68 21.27 21.05 20.70 19.95 19.38 18.75 18.00 17.46 17.18 17.22 17.57 17.99 21.34 25.88 29.65 29.80 29.80 29.70 29.51 29.25 28.28 25.69 20.77 18.08 16.81 16.25 15.83 15.83 16.01 16.51 17.11 17.88 18.39 19.13 19.81 20.28 20.49 20.62 20.57 21.20
28.45 28.48 28.52 28.82 29.27 29.72 30.17 30.26 29.68 29.13 28.78 28.48 28.16 28.01 27.94 27.78 27.77 27.69 27.48 26.99 26.55 26.19 25.55 24.95 24.25 23.91 23.42 22.69 22.19 21.83 21.33 20.40 19.32 18.58 18.13 17.62 17.03 16.52 16.44 16.78 17.27 19.70 23.62 28.52 29.18 29.33 29.09 28.95 28.90 28.10 25.63 20.04 17.51 16.59 16.20 15.93 15.75 15.84 16.26 16.85 17.53 17.98 18.40 19.55 19.72 19.93 19.99 19.97 22.15
27.82 27.85 28.16 28.64 29.12 29.52 29.61 29.48 29.00 28.66 28.22 27.69 27.67 27.59 27.43 27.28 27.30 27.52 27.36 26.73 25.89 24.91 23.87 22.76 22.37 22.54 22.95 23.21 22.61 21.71 20.49 19.08 18.18 17.75 17.55 17.48 17.32 17.63 17.48 16.08 16.57 18.55 22.28 27.51 28.69 28.81 28.57 28.41 28.27 27.98 26.14 21.43 17.76 16.33 16.09 16.06 15.92 16.09 16.51 16.92 17.61 17.71 18.01 18.88 19.31 19.75 19.87 19.82 23.65
27.67 27.80 28.19 28.77 29.07 29.07 28.98 28.62 28.55 28.36 27.99 27.58 27.33 27.10 26.94 26.84 26.95 27.37 27.45 26.40 25.09 23.61 22.52 21.80 21.83 22.04 22.25 22.42 21.13 19.80 18.69 17.84 17.17 16.60 16.37 16.50 17.71 20.05 20.45 15.78 15.74 17.24 20.62 25.91 27.93 28.39 28.09 27.95 27.90 27.71 26.31 22.24 18.10 16.43 16.13 16.16 16.48 16.46 16.58 17.32 18.04 18.33 18.41 18.43 19.01 19.53 19.77 19.75 22.38
28.10 28.19 28.19 28.46 28.68 28.59 28.32 28.01 28.21 28.14 27.86 27.40 26.97 26.87 26.77 26.67 26.55 26.69 26.69 25.99 24.40 22.90 21.98 21.80 21.80 21.54 21.19 20.78 19.15 17.90 17.21 17.04 16.69 15.80 15.12 15.32 16.44 19.01 19.58 15.23 15.09 15.73 18.05 23.05 26.75 27.71 27.57 27.54 27.46 27.46 26.53 23.94 19.54 17.36 16.61 16.57 16.87 16.70 16.70 17.55 18.32 19.07 19.42 19.06 19.18 19.36 19.58 19.86 20.35
MSLP
1024.29 1024.25 1024.21 1024.21 1024.17 1024.05 1023.97 1023.89 1023.85 1023.77 1023.65 1023.57 1023.45 1023.33 1023.21 1023.13 1022.97 1022.85 1022.73 1022.57 1022.41 1022.21 1022.01 1021.85 1021.65 1021.53 1021.45 1021.33 1021.29 1021.17 1021.13 1021.09 1021.05 1021.05 1021.05 1021.09 1021.09 1021.01 1020.97 1020.93 1021.01 1021.09 1021.21 1021.29 1021.41 1021.45 1021.33 1021.17 1020.89 1020.69 1020.53 1020.45 1020.37 1020.37 1020.33 1020.29 1020.41 1020.45 1020.41 1020.29 1020.29 1020.41 1020.57 1020.69 1020.73 1020.73 1020.73 1020.73 1020.69
1024.45 1024.41 1024.33 1024.29 1024.21 1024.17 1024.05 1024.01 1023.89 1023.81 1023.73 1023.61 1023.53 1023.45 1023.33 1023.25 1023.13 1022.93 1022.77 1022.65 1022.57 1022.41 1022.21 1022.01 1021.93 1021.85 1021.81 1021.65 1021.57 1021.53 1021.53 1021.53 1021.49 1021.45 1021.45 1021.41 1021.33 1021.25 1021.17 1021.17 1021.17 1021.25 1021.33 1021.45 1021.61 1021.77 1021.85 1021.85 1021.57 1021.29 1021.05 1020.93 1020.81 1020.77 1020.73 1020.57 1020.49 1020.57 1020.57 1020.53 1020.57 1020.61 1020.73 1020.89 1020.97 1020.97 1020.93 1020.93 1020.85
1024.57 1024.49 1024.41 1024.33 1024.29 1024.29 1024.21 1024.17 1024.05 1023.97 1023.85 1023.69 1023.57 1023.49 1023.41 1023.29 1023.17 1023.01 1022.89 1022.73 1022.65 1022.53 1022.41 1022.29 1022.21 1022.17 1022.01 1021.85 1021.73 1021.69 1021.69 1021.69 1021.69 1021.65 1021.65 1021.65 1021.61 1021.57 1021.53 1021.45 1021.45 1021.45 1021.45 1021.53 1021.69 1021.85 1022.05 1022.13 1022.05 1021.93 1021.73 1021.53 1021.45 1021.29 1021.13 1020.89 1020.73 1020.73 1020.77 1020.81 1020.85 1020.85 1020.93 1021.05 1021.13 1021.17 1021.17 1021.09 1020.97
1024.69 1024.61 1024.57 1024.53 1024.49 1024.45 1024.41 1024.29 1024.21 1024.09 1023.97 1023.77 1023.65 1023.53 1023.45 1023.29 1023.17 1023.01 1022.89 1022.81 1022.73 1022.61 1022.57 1022.49 1022.37 1022.21 1022.05 1021.89 1021.81 1021.73 1021.73 1021.65 1021.61 1021.69 1021.73 1021.81 1021.85 1021.93 1021.93 1021.85 1021.77 1021.69 1021.65 1021.65 1021.77 1021.89 1022.05 1022.17 1022.21 1022.25 1022.17 1022.05 1021.81 1021.57 1021.29 1021.05 1020.93 1020.97 1021.01 1021.05 1021.01 1021.05 1021.17 1021.21 1021.29 1021.37 1021.33 1021.25 1021.13
1024.81 1024.73 1024.73 1024.65 1024.61 1024.57 1024.49 1024.41 1024.29 1024.17 1024.01 1023.85 1023.73 1023.57 1023.45 1023.33 1023.17 1023.01 1022.89 1022.85 1022.77 1022.73 1022.65 1022.57 1022.41 1022.21 1022.09 1021.97 1021.85 1021.73 1021.69 1021.61 1021.57 1021.65 1021.73 1021.85 1021.97 1022.01 1022.09 1022.05 1022.01 1021.89 1021.85 1021.81 1021.89 1022.01 1022.09 1022.17 1022.25 1022.29 1022.29 1022.21 1021.89 1021.65 1021.45 1021.29 1021.21 1021.21 1021.21 1021.17 1021.17 1021.25 1021.29 1021.41 1021.49 1021.53 1021.49 1021.37 1021.21
1024.93 1024.85 1024.77 1024.73 1024.65 1024.57 1024.49 1024.41 1024.29 1024.17 1024.01 1023.85 1023.73 1023.61 1023.49 1023.33 1023.17 1023.01 1022.97 1022.93 1022.85 1022.77 1022.65 1022.53 1022.37 1022.17 1022.01 1021.93 1021.81 1021.73 1021.73 1021.73 1021.69 1021.69 1021.73 1021.85 1021.85 1021.93 1022.01 1022.09 1022.09 1022.01 1021.97 1022.01 1022.01 1022.05 1022.13 1022.21 1022.21 1022.29 1022.29 1022.17 1022.01 1021.81 1021.65 1021.53 1021.45 1021.41 1021.37 1021.37 1021.37 1021.45 1021.53 1021.65 1021.69 1021.73 1021.65 1021.53 1021.33
1025.01 1024.93 1024.89 1024.77 1024.69 1024.57 1024.49 1024.41 1024.25 1024.09 1023.97 1023.81 1023.73 1023.65 1023.49 1023.33 1023.21 1023.09 1022.97 1022.89 1022.81 1022.73 1022.57 1022.45 1022.29 1022.13 1021.97 1021.89 1021.85 1021.85 1021.81 1021.81 1021.81 1021.81 1021.85 1021.89 1021.93 1021.89 1021.93 1022.01 1022.09 1022.13 1022.17 1022.13 1022.09 1022.05 1022.09 1022.13 1022.17 1022.17 1022.13 1022.01 1021.93 1021.85 1021.73 1021.65 1021.53 1021.49 1021.49 1021.53 1021.53 1021.57 1021.69 1021.77 1021.81 1021.77 1021.73 1021.61 1021.45
1025.05 1024.97 1024.89 1024.77 1024.73 1024.57 1024.45 1024.33 1024.21 1024.05 1023.89 1023.77 1023.69 1023.57 1023.45 1023.29 1023.17 1023.01 1022.89 1022.81 1022.73 1022.65 1022.57 1022.45 1022.29 1022.09 1021.93 1021.89 1021.89 1021.89 1021.89 1021.89 1021.89 1021.93 1021.97 1022.01 1022.01 1022.01 1021.97 1021.93 1021.97 1022.09 1022.17 1022.13 1022.09 1022.01 1022.01 1022.01 1022.01 1022.01 1021.93 1021.85 1021.85 1021.77 1021.73 1021.73 1021.61 1021.61 1021.65 1021.69 1021.69 1021.73 1021.77 1021.85 1021.85 1021.81 1021.73 1021.65 1021.49
1025.09 1025.01 1024.89 1024.73 1024.65 1024.57 1024.45 1024.29 1024.17 1024.01 1023.89 1023.77 1023.65 1023.53 1023.37 1023.21 1023.13 1022.97 1022.85 1022.73 1022.69 1022.57 1022.49 1022.37 1022.21 1022.05 1021.97 1021.93 1021.97 1021.97 1021.97 1021.97 1022.01 1022.05 1022.09 1022.13 1022.09 1022.09 1022.01 1021.93 1021.89 1021.97 1022.01 1022.05 1022.01 1021.97 1021.93 1021.89 1021.85 1021.85 1021.77 1021.73 1021.69 1021.69 1021.69 1021.65 1021.69 1021.69 1021.73 1021.77 1021.77 1021.81 1021.85 1021.85 1021.85 1021.81 1021.73 1021.61 1021.57
1025.17 1025.01 1024.85 1024.73 1024.65 1024.53 1024.41 1024.25 1024.13 1024.01 1023.85 1023.73 1023.61 1023.45 1023.33 1023.17 1023.05 1022.93 1022.81 1022.73 1022.61 1022.57 1022.45 1022.29 1022.13 1022.01 1022.01 1022.01 1022.05 1022.05 1022.05 1022.05 1022.09 1022.13 1022.17 1022.17 1022.17 1022.13 1022.05 1021.97 1021.85 1021.81 1021.85 1021.89 1021.89 1021.85 1021.81 1021.77 1021.73 1021.65 1021.57 1021.49 1021.53 1021.57 1021.57 1021.61 1021.73 1021.73 1021.77 1021.81 1021.85 1021.85 1021.85 1021.85 1021.85 1021.77 1021.69 1021.57 1021.53
1025.21 1025.05 1024.93 1024.81 1024.69 1024.53 1024.41 1024.25 1024.05 1023.93 1023.81 1023.69 1023.57 1023.45 1023.29 1023.17 1023.01 1022.89 1022.73 1022.65 1022.61 1022.53 1022.37 1022.21 1022.09 1022.01 1022.01 1022.09 1022.17 1022.17 1022.13 1022.13 1022.13 1022.17 1022.17 1022.21 1022.17 1022.13 1022.01 1021.93 1021.85 1021.77 1021.73 1021.73 1021.77 1021.77 1021.73 1021.65 1021.57 1021.49 1021.45 1021.37 1021.37 1021.37 1021.45 1021.57 1021.65 1021.73 1021.77 1021.81 1021.85 1021.85 1021.85 1021.81 1021.77 1021.73 1021.69 1021.61 1021.53
1025.21 1025.09 1024.97 1024.85 1024.69 1024.53 1024.41 1024.29 1024.13 1023.93 1023.77 1023.69 1023.57 1023.45 1023.29 1023.13 1023.01 1022.89 1022.77 1022.65 1022.57 1022.45 1022.29 1022.17 1022.09 1022.01 1022.01 1022.13 1022.17 1022.17 1022.13 1022.09 1022.09 1022.13 1022.17 1022.17 1022.17 1022.05 1021.97 1021.85 1021.85 1021.77 1021.73 1021.65 1021.73 1021.73 1021.73 1021.65 1021.57 1021.49 1021.45 1021.37 1021.33 1021.29 1021.37 1021.49 1021.57 1021.69 1021.73 1021.77 1021.85 1021.85 1021.85 1021.77 1021.73 1021.69 1021.69 1021.61 1021.53
1025.25 1025.13 1025.01 1024.89 1024.73 1024.57 1024.45 1024.29 1024.17 1023.97 1023.81 1023.73 1023.57 1023.45 1023.29 1023.13 1023.01 1022.89 1022.81 1022.69 1022.57 1022.45 1022.29 1022.21 1022.13 1022.05 1022.05 1022.13 1022.13 1022.13 1022.09 1022.09 1022.05 1022.09 1022.13 1022.17 1022.05 1022.01 1021.93 1021.85 1021.81 1021.73 1021.73 1021.69 1021.69 1021.73 1021.73 1021.65 1021.57 1021.53 1021.45 1021.37 1021.33 1021.29 1021.33 1021.45 1021.53 1021.61 1021.69 1021.73 1021.81 1021.81 1021.73 1021.69 1021.61 1021.61 1021.65 1021.57 1021.49
1025.29 1025.17 1025.05 1024.89 1024.77 1024.61 1024.49 1024.33 1024.17 1024.01 1023.85 1023.73 1023.61 1023.49 1023.33 1023.17 1023.01 1022.89 1022.81 1022.69 1022.57 1022.41 1022.29 1022.17 1022.13 1022.05 1022.05 1022.09 1022.13 1022.13 1022.13 1022.13 1022.09 1022.09 1022.13 1022.09 1022.01 1021.97 1021.89 1021.85 1021.77 1021.73 1021.73 1021.65 1021.65 1021.69 1021.69 1021.65 1021.57 1021.49 1021.45 1021.37 1021.33 1021.33 1021.37 1021.41 1021.49 1021.53 1021.57 1021.65 1021.69 1021.69 1021.61 1021.57 1021.57 1021.57 1021.57 1021.53 1021.45
1025.29 1025.21 1025.09 1024.97 1024.85 1024.69 1024.57 1024.45 1024.29 1024.09 1023.97 1023.85 1023.73 1023.57 1023.37 1023.17 1023.01 1022.89 1022.77 1022.61 1022.49 1022.33 1022.25 1022.17 1022.17 1022.17 1022.17 1022.21 1022.25 1022.25 1022.17 1022.17 1022.17 1022.17 1022.17 1022.13 1022.05 1022.01 1021.93 1021.85 1021.77 1021.73 1021.69 1021.61 1021.61 1021.65 1021.65 1021.61 1021.57 1021.49 1021.45 1021.41 1021.41 1021.37 1021.37 1021.45 1021.45 1021.45 1021.45 1021.45 1021.49 1021.49 1021.49 1021.45 1021.49 1021.49 1021.45 1021.41 1021.33
1025.37 1025.29 1025.17 1025.01 1024.89 1024.77 1024.65 1024.53 1024.37 1024.21 1024.05 1023.93 1023.77 1023.61 1023.45 1023.25 1023.09 1022.93 1022.77 1022.65 1022.49 1022.37 1022.33 1022.37 1022.45 1022.45 1022.49 1022.53 1022.45 1022.45 1022.37 1022.33 1022.29 1022.29 1022.29 1022.21 1022.13 1022.01 1021.93 1021.85 1021.77 1021.73 1021.65 1021.65 1021.65 1021.61 1021.57 1021.57 1021.57 1021.49 1021.45 1021.45 1021.45 1021.41 1021.41 1021.41 1021.45 1021.45 1021.41 1021.33 1021.33 1021.37 1021.37 1021.37 1021.41 1021.41 1021.33 1021.29 1021.25
1025.45 1025.29 1025.17 1025.05 1024.97 1024.85 1024.73 1024.61 1024.45 1024.29 1024.17 1024.01 1023.85 1023.73 1023.57 1023.33 1023.17 1023.01 1022.93 1022.89 1022.77 1022.69 1022.65 1022.73 1022.77 1022.81 1022.81 1022.77 1022.69 1022.61 1022.57 1022.53 1022.45 1022.41 1022.33 1022.21 1022.13 1022.01 1021.89 1021.85 1021.73 1021.69 1021.69 1021.69 1021.69 1021.61 1021.57 1021.53 1021.49 1021.49 1021.45 1021.45 1021.41 1021.41 1021.37 1021.37 1021.41 1021.41 1021.37 1021.33 1021.33 1021.29 1021.29 1021.29 1021.29 1021.29 1021.25 1021.17 1021.13
1025.53 1025.41 1025.25 1025.17 1025.01 1024.93 1024.81 1024.65 1024.49 1024.37 1024.25 1024.13 1023.97 1023.81 1023.65 1023.49 1023.33 1023.21 1023.13 1023.13 1023.05 1023.01 1022.97 1022.97 1022.97 1022.93 1022.89 1022.81 1022.73 1022.65 1022.57 1022.49 1022.45 1022.33 1022.25 1022.17 1022.01 1021.93 1021.85 1021.73 1021.69 1021.69 1021.73 1021.69 1021.65 1021.57 1021.49 1021.45 1021.41 1021.45 1021.45 1021.41 1021.41 1021.41 1021.41 1021.37 1021.37 1021.37 1021.37 1021.37 1021.37 1021.33 1021.29 1021.29 1021.25 1021.17 1021.13 1021.05 1021.01
1025.57 1025.45 1025.33 1025.21 1025.13 1025.01 1024.89 1024.73 1024.57 1024.45 1024.29 1024.21 1024.09 1023.93 1023.77 1023.65 1023.53 1023.45 1023.33 1023.33 1023.25 1023.17 1023.09 1023.01 1023.01 1022.93 1022.89 1022.73 1022.65 1022.57 1022.45 1022.41 1022.33 1022.29 1022.17 1022.01 1021.93 1021.85 1021.77 1021.73 1021.69 1021.69 1021.69 1021.65 1021.57 1021.49 1021.45 1021.41 1021.37 1021.41 1021.45 1021.41 1021.41 1021.45 1021.45 1021.45 1021.45 1021.41 1021.41 1021.41 1021.37 1021.33 1021.29 1021.25 1021.17 1021.09 1021.01 1020.97 1020.89
1025.69 1025.57 1025.45 1025.29 1025.17 1025.05 1024.89 1024.73 1024.61 1024.53 1024.41 1024.29 1024.17 1024.01 1023.89 1023.81 1023.69 1023.57 1023.49 1023.45 1023.29 1023.17 1023.09 1023.05 1022.97 1022.89 1022.81 1022.69 1022.57 1022.49 1022.41 1022.29 1022.29 1022.17 1022.05 1021.93 1021.85 1021.81 1021.77 1021.73 1021.73 1021.69 1021.61 1021.61 1021.57 1021.49 1021.45 1021.45 1021.45 1021.45 1021.45 1021.45 1021.45 1021.45 1021.45 1021.45 1021.45 1021.45 1021.41 1021.37 1021.33 1021.29 1021.21 1021.17 1021.05 1021.01 1020.97 1020.89 1020.85
1025.77 1025.65 1025.49 1025.37 1025.25 1025.13 1024.93 1024.81 1024.73 1024.57 1024.49 1024.37 1024.29 1024.17 1024.01 1023.85 1023.73 1023.65 1023.57 1023.45 1023.37 1023.25 1023.13 1023.05 1022.97 1022.89 1022.73 1022.65 1022.57 1022.45 1022.33 1022.25 1022.17 1022.09 1022.01 1021.89 1021.85 1021.85 1021.85 1021.81 1021.77 1021.73 1021.65 1021.65 1021.57 1021.57 1021.57 1021.53 1021.49 1021.49 1021.49 1021.45 1021.49 1021.49 1021.49 1021.49 1021.45 1021.41 1021.37 1021.29 1021.25 1021.17 1021.13 1021.05 1021.01 1020.93 1020.89 1020.85 1020.77
1025.85 1025.73 1025.57 1025.41 1025.29 1025.13 1025.01 1024.89 1024.81 1024.69 1024.57 1024.45 1024.29 1024.21 1024.05 1023.89 1023.73 1023.65 1023.57 1023.45 1023.37 1023.25 1023.13 1023.05 1022.93 1022.85 1022.73 1022.65 1022.57 1022.45 1022.29 1022.21 1022.09 1022.01 1021.97 1021.93 1021.93 1021.85 1021.85 1021.85 1021.77 1021.73 1021.73 1021.73 1021.65 1021.61 1021.57 1021.57 1021.53 1021.53 1021.53 1021.53 1021.53 1021.49 1021.45 1021.45 1021.45 1021.41 1021.33 1021.29 1021.21 1021.13 1021.01 1020.97 1020.89 1020.85 1020.77 1020.73 1020.69
1025.89 1025.73 1025.61 1025.45 1025.29 1025.17 1025.01 1024.97 1024.89 1024.73 1024.61 1024.49 1024.41 1024.29 1024.13 1023.89 1023.77 1023.65 1023.53 1023.45 1023.37 1023.25 1023.17 1023.05 1022.89 1022.77 1022.69 1022.57 1022.53 1022.45 1022.37 1022.25 1022.09 1022.01 1021.93 1021.97 1021.93 1021.89 1021.85 1021.85 1021.85 1021.85 1021.81 1021.77 1021.73 1021.73 1021.69 1021.61 1021.57 1021.57 1021.57 1021.57 1021.49 1021.45 1021.41 1021.37 1021.37 1021.33 1021.29 1021.21 1021.13 1021.05 1020.97 1020.89 1020.81 1020.77 1020.73 1020.61 1020.53
1025.93 1025.81 1025.61 1025.45 1025.29 1025.21 1025.13 1025.05 1024.93 1024.81 1024.73 1024.57 1024.49 1024.37 1024.17 1023.97 1023.77 1023.65 1023.53 1023.45 1023.37 1023.29 1023.17 1023.05 1022.89 1022.73 1022.61 1022.57 1022.49 1022.45 1022.45 1022.33 1022.21 1022.05 1021.97 1021.93 1021.97 1021.97 1021.93 1021.97 1021.93 1021.93 1021.89 1021.85 1021.77 1021.73 1021.73 1021.69 1021.61 1021.57 1021.53 1021.49 1021.45 1021.41 1021.37 1021.33 1021.29 1021.25 1021.21 1021.17 1021.05 1020.97 1020.89 1020.81 1020.73 1020.69 1020.61 1020.49 1020.37
1026.01 1025.85 1025.65 1025.49 1025.37 1025.29 1025.21 1025.13 1025.01 1024.89 1024.77 1024.65 1024.53 1024.41 1024.21 1024.01 1023.85 1023.73 1023.57 1023.45 1023.37 1023.25 1023.17 1023.01 1022.89 1022.73 1022.61 1022.57 1022.53 1022.45 1022.45 1022.37 1022.29 1022.21 1022.13 1022.05 1022.05 1022.05 1022.05 1022.05 1022.01 1022.01 1021.93 1021.85 1021.69 1021.57 1021.53 1021.57 1021.49 1021.45 1021.45 1021.45 1021.41 1021.37 1021.29 1021.29 1021.25 1021.17 1021.13 1021.01 1020.97 1020.89 1020.85 1020.77 1020.65 1020.57 1020.45 1020.41 1020.33
1026.01 1025.85 1025.73 1025.57 1025.45 1025.33 1025.29 1025.17 1025.09 1024.97 1024.85 1024.69 1024.57 1024.41 1024.25 1024.05 1023.93 1023.81 1023.69 1023.57 1023.45 1023.29 1023.17 1023.05 1022.93 1022.81 1022.73 1022.65 1022.57 1022.49 1022.45 1022.41 1022.37 1022.37 1022.29 1022.25 1022.25 1022.21 1022.21 1022.17 1022.17 1022.09 1022.01 1021.85 1021.73 1021.57 1021.49 1021.45 1021.33 1021.37 1021.41 1021.41 1021.37 1021.33 1021.29 1021.25 1021.17 1021.17 1021.09 1021.01 1020.89 1020.89 1020.85 1020.77 1020.57 1020.45 1020.41 1020.33 1020.29
1026.01 1025.89 1025.77 1025.57 1025.45 1025.37 1025.33 1025.21 1025.09 1024.97 1024.85 1024.73 1024.57 1024.45 1024.29 1024.09 1023.97 1023.85 1023.77 1023.65 1023.49 1023.33 1023.21 1023.09 1023.01 1022.89 1022.81 1022.73 1022.69 1022.61 1022.57 1022.53 1022.49 1022.49 1022.49 1022.49 1022.45 1022.45 1022.41 1022.33 1022.29 1022.17 1022.09 1021.89 1021.77 1021.65 1021.57 1021.45 1021.33 1021.29 1021.33 1021.45 1021.37 1021.29 1021.29 1021.25 1021.17 1021.13 1021.09 1021.05 1021.01 1020.89 1020.85 1020.73 1020.65 1020.53 1020.41 1020.33 1020.29
1026.05 1025.97 1025.85 1025.65 1025.53 1025.45 1025.33 1025.25 1025.09 1024.97 1024.85 1024.73 1024.61 1024.49 1024.29 1024.13 1024.01 1023.97 1023.85 1023.69 1023.57 1023.45 1023.29 1023.17 1023.01 1022.93 1022.89 1022.81 1022.81 1022.73 1022.73 1022.69 1022.65 1022.65 1022.65 1022.61 1022.61 1022.61 1022.57 1022.45 1022.41 1022.29 1022.13 1021.93 1021.85 1021.73 1021.57 1021.49 1021.41 1021.29 1021.25 1021.29 1021.33 1021.33 1021.29 1021.29 1021.25 1021.21 1021.17 1021.13 1021.09 1021.01 1020.93 1020.85 1020.73 1020.61 1020.53 1020.45 1020.33
1026.09 1025.97 1025.85 1025.73 1025.57 1025.49 1025.37 1025.25 1025.13 1025.01 1024.89 1024.73 1024.61 1024.49 1024.37 1024.21 1024.09 1024.01 1023.85 1023.77 1023.61 1023.49 1023.37 1023.25 1023.09 1023.01 1022.97 1022.97 1022.93 1022.89 1022.85 1022.85 1022.89 1022.85 1022.77 1022.73 1022.73 1022.69 1022.65 1022.57 1022.49 1022.33 1022.17 1022.01 1021.85 1021.77 1021.69 1021.57 1021.57 1021.45 1021.33 1021.29 1021.33 1021.37 1021.41 1021.37 1021.37 1021.33 1021.29 1021.21 1021.21 1021.17 1021.09 1020.97 1020.89 1020.77 1020.61 1020.49 1020.33
1026.05 1025.97 1025.85 1025.77 1025.65 1025.53 1025.41 1025.29 1025.17 1025.05 1024.93 1024.77 1024.65 1024.53 1024.41 1024.29 1024.17 1024.01 1023.93 1023.85 1023.69 1023.57 1023.41 1023.29 1023.17 1023.13 1023.13 1023.13 1023.09 1023.01 1023.01 1023.01 1022.97 1022.93 1022.89 1022.89 1022.81 1022.77 1022.73 1022.65 1022.53 1022.37 1022.21 1022.05 1021.97 1021.89 1021.81 1021.73 1021.69 1021.61 1021.57 1021.45 1021.45 1021.49 1021.53 1021.53 1021.49 1021.45 1021.41 1021.33 1021.29 1021.21 1021.09 1020.93 1020.85 1020.73 1020.65 1020.53 1020.41
1026.05 1026.01 1025.89 1025.81 1025.73 1025.61 1025.49 1025.37 1025.21 1025.09 1024.93 1024.81 1024.69 1024.57 1024.45 1024.33 1024.21 1024.09 1023.97 1023.85 1023.69 1023.53 1023.37 1023.29 1023.29 1023.25 1023.17 1023.17 1023.17 1023.13 1023.13 1023.09 1023.05 1023.01 1023.01 1023.01 1022.93 1022.89 1022.81 1022.73 1022.57 1022.45 1022.29 1022.13 1022.05 1022.01 1021.93 1021.85 1021.81 1021.77 1021.73 1021.65 1021.65 1021.65 1021.65 1021.61 1021.61 1021.57 1021.49 1021.41 1021.29 1021.17 1021.01 1020.89 1020.77 1020.69 1020.61 1020.57 1020.45
1026.05 1026.01 1025.93 1025.85 1025.77 1025.65 1025.49 1025.37 1025.25 1025.13 1025.01 1024.89 1024.73 1024.61 1024.53 1024.45 1024.29 1024.13 1023.97 1023.85 1023.73 1023.57 1023.45 1023.41 1023.33 1023.29 1023.25 1023.21 1023.21 1023.21 1023.21 1023.21 1023.17 1023.17 1023.17 1023.17 1023.09 1023.01 1022.89 1022.77 1022.65 1022.49 1022.33 1022.17 1022.13 1022.09 1022.01 1022.01 1021.93 1021.89 1021.85 1021.81 1021.81 1021.85 1021.81 1021.73 1021.69 1021.61 1021.53 1021.45 1021.29 1021.13 1021.01 1020.89 1020.77 1020.65 1020.57 1020.49 1020.45
1026.01 1025.97 1025.89 1025.85 1025.77 1025.65 1025.49 1025.41 1025.29 1025.17 1025.01 1024.93 1024.77 1024.69 1024.57 1024.45 1024.29 1024.13 1023.97 1023.85 1023.73 1023.65 1023.57 1023.49 1023.41 1023.37 1023.33 1023.33 1023.33 1023.33 1023.33 1023.37 1023.33 1023.29 1023.25 1023.17 1023.09 1023.01 1022.93 1022.85 1022.73 1022.57 1022.41 1022.25 1022.17 1022.17 1022.13 1022.09 1022.01 1022.01 1021.93 1021.89 1021.93 1021.93 1021.89 1021.81 1021.69 1021.57 1021.49 1021.37 1021.25 1021.09 1020.93 1020.81 1020.73 1020.61 1020.49 1020.37 1020.29
1026.01 1025.93 1025.89 1025.81 1025.73 1025.61 1025.53 1025.45 1025.29 1025.17 1025.09 1024.97 1024.81 1024.73 1024.57 1024.45 1024.33 1024.17 1024.05 1023.89 1023.77 1023.65 1023.53 1023.45 1023.45 1023.45 1023.45 1023.45 1023.45 1023.45 1023.45 1023.45 1023.37 1023.33 1023.29 1023.21 1023.17 1023.05 1022.97 1022.89 1022.77 1022.57 1022.41 1022.29 1022.25 1022.21 1022.17 1022.13 1022.05 1022.01 1021.97 1021.93 1021.93 1021.93 1021.89 1021.77 1021.69 1021.57 1021.45 1021.29 1021.17 1021.01 1020.89 1020.73 1020.61 1020.49 1020.41 1020.29 1020.17
1025.97 1025.93 1025.89 1025.77 1025.73 1025.61 1025.53 1025.45 1025.29 1025.21 1025.13 1025.01 1024.89 1024.73 1024.61 1024.49 1024.41 1024.29 1024.13 1023.97 1023.81 1023.69 1023.57 1023.45 1023.45 1023.45 1023.45 1023.45 1023.53 1023.53 1023.49 1023.45 1023.41 1023.37 1023.29 1023.29 1023.17 1023.09 1023.01 1022.93 1022.85 1022.61 1022.45 1022.33 1022.29 1022.25 1022.17 1022.09 1022.05 1022.01 1021.97 1021.97 1021.97 1021.93 1021.85 1021.73 1021.69 1021.53 1021.41 1021.25 1021.13 1020.97 1020.81 1020.69 1020.57 1020.45 1020.33 1020.21 1020.09
1025.89 1025.89 1025.85 1025.81 1025.73 1025.65 1025.53 1025.45 1025.29 1025.21 1025.17 1025.05 1024.89 1024.77 1024.65 1024.53 1024.41 1024.25 1024.13 1024.01 1023.85 1023.77 1023.65 1023.57 1023.57 1023.57 1023.57 1023.57 1023.57 1023.57 1023.57 1023.53 1023.45 1023.37 1023.29 1023.29 1023.21 1023.17 1023.09 1023.01 1022.89 1022.73 1022.53 1022.33 1022.29 1022.21 1022.13 1022.05 1022.01 1021.97 1021.93 1021.97 1021.93 1021.89 1021.81 1021.73 1021.61 1021.49 1021.33 1021.21 1021.09 1020.93 1020.77 1020.61 1020.49 1020.37 1020.25 1020.13 1020.01
1025.85 1025.85 1025.85 1025.81 1025.73 1025.61 1025.49 1025.45 1025.33 1025.25 1025.17 1025.09 1024.93 1024.81 1024.69 1024.57 1024.37 1024.25 1024.13 1024.01 1023.97 1023.85 1023.77 1023.73 1023.73 1023.73 1023.73 1023.69 1023.69 1023.61 1023.57 1023.57 1023.53 1023.45 1023.37 1023.29 1023.29 1023.21 1023.17 1023.13 1023.01 1022.85 1022.65 1022.37 1022.29 1022.17 1022.13 1022.01 1021.93 1021.85 1021.85 1021.93 1021.89 1021.85 1021.73 1021.65 1021.57 1021.45 1021.29 1021.17 1021.01 1020.89 1020.73 1020.57 1020.45 1020.29 1020.17 1020.01 1019.89
1025.77 1025.77 1025.77 1025.77 1025.69 1025.57 1025.49 1025.45 1025.33 1025.29 1025.17 1025.05 1024.93 1024.77 1024.65 1024.53 1024.41 1024.29 1024.17 1024.05 1024.05 1024.01 1023.97 1023.85 1023.85 1023.81 1023.77 1023.73 1023.73 1023.65 1023.57 1023.57 1023.57 1023.53 1023.45 1023.37 1023.33 1023.29 1023.29 1023.17 1023.09 1022.97 1022.77 1022.49 1022.29 1022.21 1022.13 1022.01 1021.89 1021.77 1021.77 1021.89 1021.89 1021.85 1021.73 1021.61 1021.53 1021.41 1021.29 1021.13 1021.01 1020.85 1020.69 1020.53 1020.37 1020.25 1020.13 1020.01 1019.81
1025.73 1025.73 1025.73 1025.73 1025.65 1025.57 1025.49 1025.41 1025.33 1025.25 1025.13 1025.01 1024.89 1024.73 1024.61 1024.53 1024.41 1024.25 1024.17 1024.05 1024.09 1024.09 1024.05 1024.01 1023.97 1023.85 1023.77 1023.77 1023.73 1023.73 1023.69 1023.65 1023.61 1023.57 1023.53 1023.45 1023.37 1023.33 1023.29 1023.29 1023.17 1023.05 1022.89 1022.57 1022.37 1022.25 1022.17 1022.05 1021.93 1021.81 1021.77 1021.89 1021.89 1021.85 1021.73 1021.65 1021.53 1021.41 1021.29 1021.09 1020.93 1020.77 1020.57 1020.45 1020.29 1020.17 1020.01 1019.89 1019.65
1025.69 1025.69 1025.69 1025.69 1025.61 1025.53 1025.45 1025.41 1025.29 1025.17 1025.09 1025.01 1024.89 1024.73 1024.61 1024.53 1024.37 1024.21 1024.09 1024.01 1024.05 1024.09 1024.05 1024.01 1023.97 1023.89 1023.85 1023.85 1023.85 1023.85 1023.77 1023.73 1023.65 1023.61 1023.57 1023.49 1023.45 1023.33 1023.29 1023.33 1023.29 1023.17 1023.01 1022.73 1022.49 1022.33 1022.21 1022.13 1022.01 1021.85 1021.81 1021.85 1021.85 1021.81 1021.73 1021.61 1021.49 1021.37 1021.25 1021.05 1020.89 1020.65 1020.45 1020.29 1020.17 1020.05 1019.97 1019.85 1019.61
1025.65 1025.61 1025.61 1025.57 1025.53 1025.45 1025.45 1025.37 1025.25 1025.09 1025.01 1024.89 1024.81 1024.73 1024.57 1024.45 1024.33 1024.21 1024.09 1024.01 1024.01 1024.05 1024.05 1024.01 1023.97 1023.93 1023.93 1023.97 1023.97 1023.97 1023.89 1023.81 1023.73 1023.65 1023.65 1023.65 1023.57 1023.49 1023.45 1023.45 1023.37 1023.29 1023.09 1022.89 1022.57 1022.45 1022.29 1022.21 1022.05 1021.93 1021.81 1021.77 1021.73 1021.73 1021.69 1021.57 1021.45 1021.29 1021.17 1020.97 1020.77 1020.57 1020.37 1020.21 1020.09 1020.01 1019.89 1019.73 1019.57
Wind_Speed
9 8 7 6 6 6 5 5 5 5 5 5 5 6 6 6 6 6 6 6 7 7 7 6 7 8 10 12 13 13 13 13 13 13 13 13 12 12 12 12 12 12 12 11 11 10 9 9 7 5 4 3 4 4 4 4 4 4 5 5 5 4 4 5 4 4 4 4 3
9 8 7 7 7 6 6 6 6 6 6 5 5 6 6 6 6 6 6 7 6 6 6 6 7 8 9 11 11 11 11 11 11 11 11 12 12 12 12 12 12 12 12 11 10 9 9 9 8 7 6 5 5 5 5 4 4 5 6 6 5 4 4 4 4 4 3 3 3
8 8 8 8 8 8 7 7 7 7 7 6 6 5 5 5 5 6 6 6 6 5 5 5 5 6 7 8 8 8 8 8 9 10 10 11 12 12 12 11 12 11 11 10 9 8 8 8 7 7 6 6 6 5 4 4 4 5 5 5 4 3 3 4 3 3 2 2 2
7 7 8 8 9 8 7 6 7 8 7 6 6 5 5 5 5 5 5 5 5 4 3 3 3 3 4 5 6 7 7 8 9 9 10 10 11 11 11 10 10 10 9 9 8 7 7 6 5 4 4 4 4 4 3 4 4 4 4 3 3 3 3 3 2 2 2 2 1
7 7 7 7 8 7 7 6 7 7 7 6 5 5 5 5 5 5 5 5 4 3 3 2 1 1 2 4 5 6 7 8 8 8 8 9 8 8 8 8 8 8 7 7 7 6 5 5 3 2 2 3 3 3 3 3 3 3 3 2 3 3 2 2 2 2 2 1 1
7 7 7 6 7 7 6 6 7 7 6 6 6 6 6 6 6 6 5 4 3 3 3 2 1 0 2 3 5 5 6 7 7 7 7 7 7 7 7 7 7 7 6 6 5 4 4 3 2 2 2 2 2 3 3 3 3 3 3 3 3 2 2 2 2 2 1 1 2
6 7 7 7 7 7 7 6 7 6 6 6 7 7 7 7 7 7 6 4 3 3 3 2 1 0 1 3 4 4 5 5 6 6 6 6 6 6 6 6 5 5 4 4 3 2 2 1 1 1 1 1 1 2 3 2 3 3 3 2 2 2 1 1 2 1 1 1 2
6 7 7 7 7 8 8 7 7 7 6 6 7 8 8 8 9 9 7 4 3 2 3 3 2 1 2 3 3 4 4 5 5 5 5 5 5 5 4 4 3 3 2 1 0 0 0 1 1 1 1 1 1 1 2 2 2 2 2 1 1 1 1 1 2 1 1 1 2
7 7 7 7 7 8 8 8 7 7 7 7 7 8 8 8 9 9 8 5 3 3 3 3 3 1 2 3 3 4 4 4 5 4 4 4 3 3 2 2 2 1 1 2 2 2 2 2 2 2 2 2 1 1 1 1 1 1 1 0 1 2 2 2 2 1 1 1 1
8 8 8 8 8 8 8 8 8 8 7 8 8 8 8 9 9 8 7 5 3 3 3 4 2 1 2 3 3 3 4 4 4 3 3 2 2 2 2 2 2 3 3 3 4 4 4 3 3 3 3 2 2 2 1 1 1 1 1 1 1 2 2 2 2 1 1 1 1
8 8 8 8 9 9 9 9 9 8 8 8 9 9 9 9 9 8 7 6 4 4 4 3 2 1 2 3 3 3 3 4 3 3 3 2 2 3 3 3 4 4 4 4 4 3 3 3 4 4 4 3 3 2 2 2 2 2 2 2 2 2 2 3 2 2 1 1 2
8 8 8 9 9 10 9 9 9 9 9 9 10 10 10 10 9 9 8 8 7 6 4 3 2 2 3 3 3 3 3 3 3 3 3 3 4 4 4 4 4 4 4 4 3 3 3 3 4 4 4 3 2 2 2 3 3 3 2 2 2 2 2 3 3 2 2 2 2
8 9 9 9 10 10 10 10 9 9 9 10 10 10 10 10 9 9 9 10 9 7 5 3 2 1 3 4 4 3 3 3 4 3 3 4 4 5 5 5 5 5 5 4 3 3 3 4 4 4 4 3 3 3 3 3 3 3 3 3 3 3 3 4 3 3 2 2 2
8 9 9 10 10 10 10 10 9 9 9 10 10 10 10 9 9 9 9 10 10 8 6 3 2 1 3 4 3 3 3 3 3 3 3 4 5 5 5 5 5 5 5 4 4 4 4 4 4 4 4 4 4 4 3 4 4 4 4 4 4 4 4 4 4 3 2 2 2
9 9 10 10 10 10 9 9 9 9 10 10 10 10 10 10 10 9 10 10 10 9 6 3 1 0 2 3 3 2 2 2 2 2 3 4 5 5 5 5 6 6 5 4 4 4 4 5 4 4 4 4 4 4 4 4 4 5 5 5 5 5 5 4 4 3 3 2 2
9 10 10 10 10 10 9 9 8 9 10 10 10 10 10 10 10 10 10 10 9 8 6 3 3 3 3 2 1 0 1 1 2 3 4 5 6 6 6 6 6 6 5 5 4 4 4 4 4 4 4 4 4 5 4 4 5 5 5 6 6 5 5 5 4 4 3 2 2
10 10 10 10 10 10 10 9 9 9 10 10 11 11 10 10 9 9 9 9 7 6 6 5 5 4 3 2 2 3 3 3 3 4 5 6 7 7 7 7 7 6 5 4 4 4 4 4 3 3 4 4 5 5 5 5 5 5 5 5 5 4 4 4 4 3 3 2 2
10 10 10 10 10 10 10 10 10 10 10 10 11 10 10 9 9 8 8 7 6 6 6 6 4 3 3 3 3 3 3 4 5 5 6 7 7 7 8 8 7 5 4 4 4 5 5 5 4 3 3 4 4 4 4 4 4 4 4 4 3 3 3 3 3 3 3 3 3
10 10 10 10 10 10 10 10 10 10 10 10 10 9 9 8 8 7 7 6 5 5 4 4 3 2 3 4 4 4 4 4 5 6 7 7 7 7 7 7 6 5 4 4 5 5 5 5 4 3 3 3 3 3 3 3 3 3 3 2 2 3 3 3 3 3 3 3 3
9 10 10 10 10 10 10 10 9 9 9 9 9 8 8 7 6 6 6 5 4 4 3 2 2 3 4 5 5 5 5 4 5 6 7 7 7 7 7 6 6 5 5 4 4 4 4 4 3 3 2 3 3 3 3 2 2 2 2 2 2 3 3 3 3 3 3 3 3
9 9 9 9 9 9 9 9 9 9 8 8 8 7 6 5 5 5 5 4 4 4 3 3 4 5 5 6 6 6 6 5 5 6 7 7 7 6 6 5 5 5 4 4 3 3 3 3 3 2 2 2 3 3 3 2 2 2 2 2 3 3 3 3 3 3 3 4 4
8 8 9 9 9 9 8 8 8 8 8 7 7 6 5 5 4 4 5 5 4 4 4 5 5 6 6 6 6 7 6 5 6 6 6 5 5 5 5 4 4 4 4 4 3 3 3 3 2 2 2 2 2 2 2 2 2 2 2 3 3 4 4 4 4 4 4 5 4
8 8 8 8 8 8 8 8 8 8 8 7 7 6 5 5 5 5 5 6 5 6 6 6 6 6 7 7 6 6 6 6 6 6 5 4 4 4 4 4 4 4 4 4 3 3 3 3 3 2 2 2 2 2 2 2 2 3 3 3 4 4 4 4 4 4 5 5 5
8 8 8 7 8 8 8 8 8 8 8 7 7 7 6 6 6 6 6 6 7 7 7 6 6 7 7 7 6 6 6 6 6 6 6 5 5 5 5 5 4 4 4 4 4 3 3 2 3 2 2 2 2 3 3 3 3 3 4 4 4 4 4 4 4 5 5 5 5
8 8 8 8 8 8 8 8 8 8 8 8 7 7 7 7 6 6 6 7 7 7 8 8 7 7 7 6 6 6 5 5 5 6 6 6 6 6 5 5 4 4 4 4 6 7 6 5 4 3 3 2 2 2 3 3 4 4 4 4 4 4 4 5 5 5 5 5 5
7 8 8 8 8 8 8 8 8 8 8 7 7 7 7 6 6 7 7 7 8 8 8 8 7 7 6 5 6 6 6 5 5 5 5 6 6 6 6 5 5 4 5 6 9 9 9 9 7 5 3 3 3 3 3 3 4 4 4 5 4 4 4 5 5 5 5 4 4
7 7 7 7 7 8 7 7 7 7 7 7 7 7 7 7 7 7 7 8 8 8 7 6 6 6 5 5 5 6 6 5 5 5 5 5 5 6 6 6 5 5 6 9 11 12 12 12 11 9 6 3 3 3 4 4 4 4 4 5 5 5 5 5 6 6 6 5 4
6 6 6 7 7 7 7 6 7 7 7 7 7 7 7 7 7 7 8 8 8 7 6 5 5 4 4 4 5 5 5 5 5 5 4 4 5 5 6 6 5 6 8 12 13 14 14 14 14 14 12 7 4 4 4 4 4 4 4 4 5 5 5 5 6 6 6 6 5
5 6 6 6 7 7 7 7 7 7 7 7 7 7 7 7 7 7 7 8 7 6 5 5 4 4 4 4 5 5 5 5 5 4 4 5 5 6 6 6 6 7 10 13 14 14 15 15 16 17 16 15 7 4 3 3 4 4 4 4 4 5 5 6 6 6 6 6 5
5 5 5 6 6 7 7 7 7 7 7 6 6 7 7 7 7 7 7 7 7 6 5 4 4 4 4 4 4 4 5 5 4 4 5 6 6 6 6 6 6 7 9 13 13 14 15 16 16 17 17 17 11 6 4 3 4 4 4 5 5 5 5 6 6 6 6 6 5
4 5 5 6 6 7 7 7 7 7 7 6 6 7 7 7 7 7 7 6 6 6 6 5 5 5 4 4 4 4 4 4 4 4 4 5 5 5 5 6 6 7 8 12 13 14 14 15 15 16 16 15 11 8 5 4 4 4 4 4 5 5 5 5 5 6 6 6 5
4 4 5 6 6 7 7 7 7 7 7 7 7 7 7 7 7 7 6 6 6 6 6 5 5 5 4 4 4 4 4 4 4 4 4 3 3 3 4 5 5 6 8 12 12 13 13 14 14 14 14 13 9 7 5 4 4 3 3 4 5 5 5 4 4 5 5 5 5
4 4 5 6 6 7 7 7 7 7 7 7 7 7 7 7 7 7 7 7 6 6 6 5 5 4 3 3 3 3 3 3 3 3 3 3 3 3 4 5 5 6 8 11 11 11 12 12 12 12 12 11 7 5 5 4 3 3 3 3 4 5 5 5 4 5 5 5 5
4 4 5 6 6 7 7 7 7 7 7 7 7 7 7 7 7 7 7 6 6 6 6 5 4 3 2 2 2 2 2 2 2 2 2 2 2 3 4 4 4 5 8 10 10 10 10 10 10 10 9 8 5 4 4 4 3 3 3 4 4 4 4 5 5 5 5 5 5
3 4 5 5 6 6 7 7 7 7 7 7 8 8 7 6 7 6 6 6 6 6 6 5 3 2 2 1 1 1 1 1 2 2 2 2 2 3 4 4 4 5 7 9 8 8 8 8 8 8 7 5 3 2 2 3 3 3 4 4 5 5 5 5 5 5 5 6 6
3 4 4 5 6 6 7 7 7 7 7 7 7 7 7 7 6 6 6 5 6 6 6 4 3 2 2 2 2 1 1 1 1 1 2 2 2 3 3 3 4 5 7 7 8 8 8 8 7 7 5 3 2 2 2 2 3 3 4 5 5 5 6 6 6 6 6 6 6
3 3 4 5 6 6 6 6 7 7 7 8 7 7 7 6 6 5 5 5 5 6 5 4 2 2 1 1 1 2 2 1 1 1 1 1 1 2 2 2 3 5 6 7 8 9 9 10 9 8 6 2 2 2 3 3 3 3 4 5 5 6 6 6 6 6 7 7 7
3 3 3 4 5 6 6 6 6 7 7 7 6 6 6 5 5 5 5 4 4 4 4 3 2 1 1 1 2 2 2 2 2 1 1 1 0 0 1 2 3 5 6 8 9 10 11 12 13 12 9 3 3 3 3 4 4 4 5 5 6 6 6 6 5 6 6 7 9
3 3 3 4 5 6 6 6 7 7 7 7 6 6 6 5 4 4 4 3 3 3 2 2 2 2 2 2 2 2 3 3 2 1 1 1 1 1 0 1 3 4 6 9 10 12 13 14 15 15 13 5 4 4 4 4 5 5 5 5 6 6 6 6 5 5 6 7 11
3 3 3 4 5 5 6 6 7 6 6 6 7 6 6 5 4 4 4 3 2 2 1 2 2 2 2 2 2 3 3 3 3 2 2 2 2 2 1 1 2 4 6 9 11 13 14 15 16 17 14 7 5 4 4 4 5 5 6 6 6 6 5 5 5 4 5 6 8
3 3 3 4 5 5 6 6 7 6 6 6 6 6 5 4 4 4 4 3 2 1 1 1 2 2 2 2 2 3 3 3 3 3 3 3 3 3 3 2 3 4 5 8 11 13 14 15 16 17 16 10 6 4 4 4 5 6 6 6 6 5 5 5 4 4 4 5 6
Wind_Direction
24 22 20 18 14 11 8 5 1 358 355 355 355 354 353 352 348 345 343 343 343 341 339 340 347 356 4 10 14 16 19 21 26 30 33 33 33 33 32 32 30 27 22 15 10 6 4 3 8 19 33 42 51 52 51 50 55 59 61 62 59 53 48 46 44 43 44 45 41
22 21 20 18 15 11 8 4 1 358 357 356 355 353 351 349 346 344 344 345 344 342 341 347 2 15 24 30 34 36 36 35 34 35 36 36 34 35 36 37 35 34 31 26 20 13 6 359 2 8 16 22 32 37 40 43 50 56 57 54 52 47 42 38 33 30 30 34 33
20 18 18 17 14 11 7 2 358 355 354 352 350 348 346 343 342 342 342 342 342 344 347 355 10 25 35 42 46 48 47 45 42 41 39 36 34 33 34 36 36 36 36 35 32 25 16 7 8 10 11 10 16 22 27 28 40 49 52 46 45 41 38 33 23 16 14 19 26
18 17 15 14 11 8 4 357 353 351 349 346 343 341 339 337 338 338 338 339 342 346 350 354 8 28 43 52 56 57 57 56 54 50 46 41 36 33 32 33 34 36 37 37 35 30 23 16 17 14 8 1 7 14 21 23 35 43 46 39 39 38 34 26 11 1 358 1 13
13 12 11 8 5 2 357 352 348 346 343 341 338 336 334 334 335 335 337 340 340 334 326 325 348 35 58 64 64 64 62 61 61 59 57 52 46 40 35 33 34 34 35 36 33 28 21 16 19 10 356 351 3 11 15 23 36 41 39 31 31 31 28 15 354 342 336 338 345
6 4 3 1 358 356 352 348 344 340 337 337 335 333 331 333 333 333 331 327 313 301 296 296 289 42 74 71 67 66 65 64 66 68 67 64 59 53 47 41 37 36 36 35 31 26 19 15 15 357 344 346 356 356 0 17 39 44 38 25 17 16 12 357 328 318 323 336 342
3 1 358 356 354 351 347 343 339 336 335 335 333 331 329 328 327 325 321 307 292 285 285 279 266 228 82 76 72 71 71 71 72 72 71 69 65 61 57 53 46 40 37 35 33 28 22 20 13 326 315 325 339 341 346 10 41 50 44 24 4 357 348 318 300 302 318 338 337
2 360 356 353 351 348 344 341 338 336 335 335 331 327 325 324 323 322 320 312 285 268 264 263 247 201 102 90 85 82 80 79 75 72 71 71 69 68 68 67 62 55 45 33 55 170 206 203 206 230 253 268 288 315 334 5 46 57 55 19 330 315 304 285 284 288 301 324 328
1 357 354 352 350 347 343 340 337 334 332 329 326 324 323 323 323 323 322 315 279 254 251 252 240 190 108 93 92 91 88 85 80 78 76 77 80 83 90 97 109 137 191 219 219 213 207 200 204 213 224 228 229 253 288 355 63 79 92 241 279 285 285 279 278 278 286 304 314
359 355 353 352 348 345 342 339 336 333 329 327 326 326 326 326 326 325 322 313 284 258 250 251 241 171 105 96 96 96 95 91 92 93 94 97 113 134 156 176 187 196 206 216 220 216 209 201 202 208 213 212 206 212 220 215 149 159 192 225 247 268 278 279 275 272 271 273 279
356 354 352 350 346 343 341 340 336 333 332 331 330 330 330 328 327 326 323 320 305 281 263 252 237 160 113 105 107 106 104 102 108 115 127 151 185 201 207 211 211 211 213 217 221 219 214 206 205 208 213 216 208 206 204 198 182 189 206 227 233 249 263 272 268 261 250 244 253
354 352 350 348 345 343 341 340 336 334 333 333 333 332 331 329 328 327 326 325 317 303 283 260 236 159 127 119 124 122 118 119 128 140 160 192 211 219 222 224 224 224 225 226 225 223 220 215 210 212 217 223 218 211 204 196 189 195 208 224 225 233 246 258 258 251 241 232 241
353 351 349 346 344 342 341 339 336 334 334 335 334 333 330 328 328 328 328 325 318 310 295 268 244 161 134 135 138 134 132 139 150 164 187 211 224 229 233 235 236 237 236 235 229 224 221 222 216 214 217 226 227 222 212 200 195 197 205 216 221 227 235 243 244 241 235 226 235
352 350 348 345 343 342 340 338 335 335 335 335 334 333 330 329 329 329 326 322 315 308 297 268 250 174 140 139 138 139 145 157 169 187 209 228 237 241 244 248 246 245 243 241 231 224 222 226 222 219 219 228 233 230 221 209 203 201 203 208 215 222 227 231 231 227 223 219 231
352 349 346 344 343 341 339 337 336 335 336 336 335 334 333 331 331 328 325 321 315 310 302 279 281 99 109 119 128 144 160 178 194 217 239 254 260 260 259 259 256 253 250 247 238 229 226 229 228 226 226 233 240 238 231 220 216 211 209 208 210 214 218 222 219 215 211 209 225
351 348 345 343 342 340 339 338 337 336 336 336 336 336 336 335 332 330 328 327 324 323 324 337 8 29 43 65 44 303 288 283 269 269 273 277 278 275 271 267 263 260 257 255 251 244 238 234 232 232 234 241 247 247 242 232 228 224 220 214 210 209 211 212 210 207 204 196 211
349 347 344 343 341 340 338 337 337 337 337 337 338 339 338 338 337 337 338 340 342 352 7 24 27 27 20 355 326 320 321 316 303 293 287 284 283 281 279 274 271 269 268 266 266 263 258 250 240 234 235 242 250 252 250 242 237 233 230 225 218 213 210 208 206 203 198 190 209
348 346 344 343 341 339 337 336 337 338 339 340 341 341 341 343 345 348 352 358 6 20 31 34 26 14 351 323 315 313 312 306 298 291 287 284 284 283 282 281 281 282 281 275 270 268 267 265 255 245 240 244 252 255 255 251 245 240 236 232 230 226 220 215 209 203 196 194 214
348 346 344 342 339 337 336 336 338 340 342 343 343 343 345 351 356 1 5 10 16 28 36 33 8 338 314 302 301 300 296 292 289 286 285 284 284 284 285 287 290 290 284 272 266 266 268 271 271 267 263 262 266 267 265 259 253 247 242 239 240 240 236 229 220 211 204 204 216
347 345 342 339 337 336 336 338 341 343 344 344 344 344 347 356 5 10 11 7 4 8 12 0 326 305 296 293 295 295 293 288 286 285 285 285 286 288 291 295 296 292 283 273 269 270 275 282 288 292 292 290 287 284 280 274 268 262 258 252 250 247 243 238 230 222 217 216 220
346 342 338 336 335 335 337 340 344 345 345 344 343 343 346 356 6 7 2 350 342 338 332 320 307 300 298 297 297 297 295 292 291 288 288 289 293 298 303 306 302 297 292 287 285 287 293 302 309 312 310 302 292 285 281 278 276 274 269 264 257 253 249 244 237 231 228 225 224
343 339 336 334 335 336 340 345 347 346 344 343 341 340 342 350 356 352 344 333 328 324 320 314 308 305 302 300 299 299 300 301 299 297 296 299 306 314 320 321 315 312 313 316 317 319 322 323 323 319 311 298 285 276 268 260 260 261 262 262 260 259 257 252 244 238 233 229 226
340 337 335 334 336 341 346 351 348 346 343 341 337 335 336 342 344 341 336 331 327 323 320 316 313 309 305 302 302 303 306 309 311 313 316 324 333 339 341 342 341 337 333 329 328 328 327 323 319 312 296 275 268 260 251 237 235 241 249 255 260 262 261 256 248 242 238 234 229
339 338 337 337 341 347 352 352 349 346 343 338 332 329 331 337 339 337 333 329 325 323 320 317 313 310 308 308 310 313 316 319 324 328 335 348 355 357 355 357 356 348 336 324 317 312 306 296 296 290 278 258 252 248 241 231 227 229 235 244 254 261 264 262 253 245 241 240 237
339 338 338 339 346 352 355 352 348 344 339 332 327 326 329 334 335 333 330 326 323 320 318 315 312 311 313 318 322 327 332 338 342 347 351 357 1 2 1 0 354 344 330 320 314 309 301 282 273 265 259 255 251 250 248 243 235 232 233 237 244 255 266 272 269 260 251 248 247
340 341 341 342 350 354 354 349 344 339 334 328 326 327 328 330 330 328 326 324 322 320 317 315 314 315 320 326 333 340 347 353 358 2 3 4 2 1 1 358 351 341 332 328 325 319 312 299 287 273 254 250 258 266 269 265 253 247 243 244 245 250 260 273 276 275 271 265 263
342 342 342 345 353 353 350 343 339 335 332 329 328 326 325 327 328 327 325 322 320 319 318 316 316 319 324 332 343 349 354 358 3 6 9 12 8 5 1 357 351 345 340 339 337 332 327 321 313 307 295 264 265 271 276 277 271 264 259 257 256 257 260 268 274 279 284 288 288
341 340 342 347 352 349 343 337 336 334 332 329 326 323 323 326 327 326 324 321 320 320 319 319 320 325 334 345 351 355 358 2 5 7 11 15 15 11 6 0 354 350 348 350 349 348 346 344 340 337 332 317 294 278 279 284 284 283 278 274 275 277 280 282 285 289 292 295 299
336 337 340 345 346 343 339 337 334 331 329 327 324 323 325 328 328 327 324 322 322 322 321 321 325 334 344 350 353 358 4 8 9 11 14 18 16 13 8 2 355 352 354 358 2 4 5 5 4 2 358 353 342 320 301 298 301 302 303 302 305 306 306 304 302 299 294 290 291
332 334 337 339 338 337 335 333 329 327 326 325 326 327 329 331 330 328 326 324 322 319 318 321 329 337 343 349 357 6 12 13 13 16 19 19 16 11 5 1 355 354 359 7 14 18 20 20 18 16 14 10 5 356 340 326 321 320 320 321 322 318 313 306 301 297 293 290 291
326 330 333 334 333 332 329 326 325 325 325 327 329 330 332 332 330 327 324 322 319 318 319 323 332 337 342 353 8 17 19 16 16 17 18 18 14 8 1 357 352 355 5 18 25 28 28 26 24 23 21 19 16 10 359 347 339 331 325 321 316 311 307 304 302 301 299 299 302
319 326 330 331 329 327 325 323 323 323 323 325 327 330 331 331 327 324 322 321 320 320 322 327 332 337 344 359 14 20 21 18 14 11 11 13 11 7 2 359 352 357 12 26 32 33 31 29 27 25 24 23 20 13 4 355 344 332 318 309 305 304 304 304 304 303 302 302 301
316 323 327 328 326 323 322 322 321 321 321 323 326 328 329 329 327 326 326 325 324 324 324 326 329 335 346 4 16 19 17 13 7 2 1 5 11 13 9 3 352 360 16 30 34 35 33 31 28 26 25 24 20 11 1 356 345 331 318 309 304 302 301 300 299 298 298 295 289
312 320 324 325 323 321 320 320 319 319 320 322 324 326 327 327 327 327 327 327 326 326 327 329 333 340 355 18 27 21 8 358 356 356 356 0 15 22 19 5 348 359 15 32 34 35 34 33 30 27 25 22 16 4 354 349 341 330 318 309 305 302 301 299 296 293 290 287 283
307 316 321 321 320 319 319 319 319 320 321 322 321 321 322 323 324 324 323 323 326 328 331 335 345 1 15 25 26 16 2 352 351 352 354 2 24 28 22 1 340 351 7 27 31 31 31 33 31 27 24 19 7 351 342 338 328 317 310 305 302 302 301 302 300 296 291 288 285
299 310 315 316 316 317 317 318 319 321 321 319 317 316 317 318 318 319 320 323 327 330 332 336 349 8 17 12 355 346 338 334 338 342 350 7 32 33 19 352 332 336 350 15 23 23 21 23 23 23 20 12 349 331 324 321 310 303 301 301 301 302 302 302 301 299 296 293 290
290 302 309 312 313 313 314 316 318 319 318 315 312 311 311 313 314 316 319 327 330 330 329 332 343 358 3 353 329 314 304 296 302 319 340 4 36 36 13 340 322 319 330 358 13 13 8 8 7 8 11 4 338 327 322 316 309 304 303 302 302 301 301 301 299 298 296 294 293
285 296 304 307 308 309 311 314 315 314 312 309 307 307 308 310 311 314 317 326 328 325 321 320 322 319 310 302 296 295 295 295 289 291 311 337 4 31 355 328 313 309 320 347 5 7 4 3 358 359 2 2 341 331 326 322 317 313 310 309 306 304 302 299 298 296 294 293 298
282 291 298 302 304 306 308 310 310 308 306 305 304 305 307 309 308 308 310 316 319 313 303 293 289 288 291 299 297 295 294 295 289 285 284 289 273 257 256 311 307 308 321 345 2 6 5 3 358 357 358 358 347 336 330 327 323 319 316 314 311 307 303 298 297 296 294 292 302
280 289 296 298 300 303 305 306 304 303 302 302 303 304 304 303 300 301 305 312 313 301 277 266 274 287 305 322 309 298 293 295 297 299 299 299 299 306 319 321 312 313 326 346 2 5 5 2 358 356 354 353 351 344 337 332 328 324 320 316 311 307 303 299 297 296 297 296 305
283 291 295 297 298 300 302 302 301 300 300 302 301 299 298 297 296 299 305 313 312 299 272 262 283 306 324 336 318 303 298 302 308 315 321 322 319 325 332 328 321 320 329 345 0 4 4 0 357 354 352 350 351 347 341 337 331 326 320 312 307 305 304 306 306 306 307 308 310